AZU2601 SBEG-SBRF

Flight info

Callsign AZU2601
Flight time N/A
Altitude 33000
Route SIGEP UP527 TERET/N0450F350 UP527 KIMOK
Aircraft E295/M-SDFGHIRWY/H

Departure

Time 2026-05-06 23:50
Airport Eduardo Gomes International Airport (SBEG)

Arrival

Time N/A
Airport Recife/Guararapes - Gilberto Freyre International Airport (SBRF)
Time Latitude Longitude Altitude Speed Heading
2026-05-06 23:37 -3.03270 -60.04539 267 ft 0 kts 353°
2026-05-06 23:39 -3.03271 -60.04539 267 ft 2 kts 353°
2026-05-06 23:39 -3.03291 -60.04536 267 ft 3 kts 348°
2026-05-06 23:39 -3.03311 -60.04531 267 ft 3 kts 340°
2026-05-06 23:40 -3.03330 -60.04524 267 ft 3 kts 326°
2026-05-06 23:40 -3.03344 -60.04511 267 ft 3 kts 290°
2026-05-06 23:40 -3.03347 -60.04499 267 ft 1 kts 261°
2026-05-06 23:40 -3.03346 -60.04496 267 ft 0 kts 261°
2026-05-06 23:45 -3.03347 -60.04501 267 ft 2 kts 261°
2026-05-06 23:45 -3.03348 -60.04507 267 ft 0 kts 261°
2026-05-06 23:46 -3.03349 -60.04512 267 ft 3 kts 261°
2026-05-06 23:46 -3.03355 -60.04552 267 ft 9 kts 265°
2026-05-06 23:46 -3.03354 -60.04632 267 ft 14 kts 273°
2026-05-06 23:46 -3.03366 -60.04756 267 ft 22 kts 244°
2026-05-06 23:47 -3.03478 -60.04880 267 ft 25 kts 215°
2026-05-06 23:47 -3.03584 -60.05019 267 ft 26 kts 251°
2026-05-06 23:47 -3.03633 -60.05198 267 ft 27 kts 255°
2026-05-06 23:47 -3.03679 -60.05388 267 ft 29 kts 261°
2026-05-06 23:48 -3.03693 -60.05588 267 ft 30 kts 271°
2026-05-06 23:48 -3.03691 -60.05798 267 ft 30 kts 270°
2026-05-06 23:48 -3.03691 -60.06013 267 ft 30 kts 270°
2026-05-06 23:48 -3.03766 -60.06171 267 ft 27 kts 192°
2026-05-06 23:49 -3.03856 -60.06090 268 ft 19 kts 89°
2026-05-06 23:49 -3.03858 -60.05874 268 ft 56 kts 90°
2026-05-06 23:49 -3.03861 -60.05274 266 ft 115 kts 90°
2026-05-06 23:49 -3.03859 -60.04296 271 ft 164 kts 90°
2026-05-06 23:50 -3.03855 -60.03098 717 ft 174 kts 90°
2026-05-06 23:50 -3.04176 -60.00657 2089 ft 185 kts 108°
2026-05-06 23:50 -3.04597 -59.99415 2681 ft 191 kts 108°
2026-05-06 23:51 -3.05019 -59.98154 3311 ft 197 kts 105°
2026-05-06 23:51 -3.05399 -59.96801 3841 ft 209 kts 103°
2026-05-06 23:51 -3.05771 -59.95347 4373 ft 221 kts 103°
2026-05-06 23:51 -3.06147 -59.93831 4940 ft 233 kts 102°
2026-05-06 23:52 -3.06521 -59.92214 5511 ft 243 kts 102°
2026-05-06 23:52 -3.06916 -59.90541 6203 ft 254 kts 103°
2026-05-06 23:52 -3.07355 -59.88698 6495 ft 281 kts 103°
2026-05-06 23:52 -3.07818 -59.86781 7415 ft 286 kts 103°
2026-05-06 23:53 -3.08287 -59.84838 8349 ft 289 kts 103°
2026-05-06 23:53 -3.08758 -59.82901 9277 ft 292 kts 103°
2026-05-06 23:53 -3.09240 -59.80919 10224 ft 296 kts 103°
2026-05-06 23:53 -3.09745 -59.78847 10792 ft 313 kts 103°
2026-05-06 23:54 -3.10270 -59.76704 11584 ft 320 kts 103°
2026-05-06 23:54 -3.10802 -59.74531 12433 ft 323 kts 103°
2026-05-06 23:54 -3.11338 -59.72336 13242 ft 326 kts 103°
2026-05-06 23:54 -3.11882 -59.70116 14028 ft 331 kts 103°
2026-05-06 23:55 -3.12431 -59.67868 14802 ft 335 kts 104°
2026-05-06 23:55 -3.12981 -59.65617 15567 ft 339 kts 103°
2026-05-06 23:55 -3.13500 -59.63301 16311 ft 343 kts 102°
2026-05-06 23:55 -3.14036 -59.60955 17005 ft 348 kts 103°
2026-05-06 23:56 -3.14588 -59.58587 17668 ft 352 kts 103°
2026-05-06 23:56 -3.15161 -59.56196 18301 ft 356 kts 104°
2026-05-06 23:56 -3.15743 -59.53778 18904 ft 359 kts 104°
2026-05-06 23:56 -3.16339 -59.51337 19474 ft 363 kts 104°
2026-05-06 23:57 -3.16944 -59.48874 20011 ft 367 kts 104°
2026-05-06 23:57 -3.17557 -59.46387 20545 ft 370 kts 104°
2026-05-06 23:57 -3.18169 -59.43909 21057 ft 373 kts 104°
2026-05-06 23:57 -3.18796 -59.41377 21549 ft 377 kts 104°
2026-05-06 23:58 -3.19430 -59.38822 22033 ft 380 kts 104°
2026-05-06 23:58 -3.20072 -59.36247 22505 ft 383 kts 104°
2026-05-06 23:58 -3.20719 -59.33649 22965 ft 386 kts 104°
2026-05-06 23:58 -3.21369 -59.31035 23384 ft 389 kts 104°
2026-05-06 23:59 -3.22028 -59.28398 23809 ft 392 kts 104°
2026-05-06 23:59 -3.22690 -59.25742 24229 ft 395 kts 104°
2026-05-06 23:59 -3.23357 -59.23063 24628 ft 398 kts 104°
2026-05-06 23:59 -3.24028 -59.20369 25029 ft 400 kts 104°
2026-05-07 00:00 -3.24696 -59.17694 25388 ft 403 kts 104°
2026-05-07 00:00 -3.25376 -59.14967 25755 ft 405 kts 104°
2026-05-07 00:00 -3.26063 -59.12225 26086 ft 407 kts 104°
2026-05-07 00:00 -3.26749 -59.09471 26411 ft 409 kts 104°
2026-05-07 00:01 -3.27439 -59.06704 26735 ft 411 kts 104°
2026-05-07 00:01 -3.28135 -59.03917 27048 ft 414 kts 104°
2026-05-07 00:01 -3.28801 -59.01107 27359 ft 416 kts 101°
2026-05-07 00:01 -3.29352 -58.98261 27670 ft 418 kts 101°
2026-05-07 00:02 -3.29910 -58.95442 27982 ft 419 kts 101°
2026-05-07 00:02 -3.30478 -58.92575 28283 ft 421 kts 101°
2026-05-07 00:02 -3.31053 -58.89694 28579 ft 423 kts 101°
2026-05-07 00:02 -3.31632 -58.86801 28858 ft 425 kts 101°
2026-05-07 00:03 -3.32213 -58.83897 29116 ft 427 kts 101°
2026-05-07 00:03 -3.32798 -58.80978 29374 ft 429 kts 101°
2026-05-07 00:03 -3.33383 -58.78049 29619 ft 430 kts 101°
2026-05-07 00:03 -3.33974 -58.75108 29845 ft 432 kts 101°
2026-05-07 00:04 -3.34565 -58.72155 30068 ft 433 kts 101°
2026-05-07 00:04 -3.35153 -58.69236 30294 ft 435 kts 101°
2026-05-07 00:04 -3.35750 -58.66260 30501 ft 437 kts 101°
2026-05-07 00:04 -3.36349 -58.63275 30711 ft 438 kts 101°
2026-05-07 00:05 -3.36948 -58.60281 30915 ft 439 kts 101°
2026-05-07 00:05 -3.37550 -58.57278 31063 ft 442 kts 101°
2026-05-07 00:05 -3.38156 -58.54259 31258 ft 443 kts 101°
2026-05-07 00:05 -3.38764 -58.51232 31454 ft 444 kts 101°
2026-05-07 00:06 -3.39373 -58.48196 31639 ft 446 kts 101°
2026-05-07 00:06 -3.39984 -58.45147 31837 ft 447 kts 101°
2026-05-07 00:06 -3.40588 -58.42134 32019 ft 448 kts 101°
2026-05-07 00:06 -3.41202 -58.39069 32193 ft 450 kts 101°
2026-05-07 00:07 -3.41817 -58.36002 32457 ft 449 kts 101°
2026-05-07 00:07 -3.42431 -58.32943 32713 ft 448 kts 101°
2026-05-07 00:07 -3.43044 -58.29889 33024 ft 446 kts 101°
2026-05-07 00:07 -3.43655 -58.26840 33010 ft 452 kts 101°
2026-05-07 00:08 -3.44905 -58.20607 33024 ft 461 kts 101°
2026-05-07 00:08 -3.46163 -58.14326 33047 ft 465 kts 101°
2026-05-07 00:09 -3.47437 -58.07959 32987 ft 467 kts 101°
2026-05-07 00:09 -3.48711 -58.01588 32937 ft 466 kts 101°
2026-05-07 00:10 -3.49984 -57.95221 32940 ft 467 kts 101°
2026-05-07 00:10 -3.51255 -57.88846 32940 ft 468 kts 101°
2026-05-07 00:11 -3.52532 -57.82520 32934 ft 467 kts 101°
2026-05-07 00:11 -3.53792 -57.76149 32932 ft 467 kts 101°
2026-05-07 00:12 -3.55068 -57.69770 32935 ft 467 kts 101°
2026-05-07 00:12 -3.56346 -57.63399 32932 ft 467 kts 101°
2026-05-07 00:13 -3.57605 -57.57071 32930 ft 466 kts 101°
2026-05-07 00:13 -3.58877 -57.50703 32931 ft 467 kts 101°
2026-05-07 00:14 -3.60149 -57.44336 32935 ft 467 kts 101°
2026-05-07 00:14 -3.61416 -57.37959 32921 ft 466 kts 101°
2026-05-07 00:15 -3.62675 -57.31636 32922 ft 466 kts 101°
2026-05-07 00:15 -3.63947 -57.25237 32932 ft 471 kts 101°
2026-05-07 00:16 -3.65220 -57.18807 32926 ft 471 kts 101°
2026-05-07 00:16 -3.66497 -57.12373 32932 ft 471 kts 101°
2026-05-07 00:17 -3.67771 -57.05939 32920 ft 471 kts 101°
2026-05-07 00:17 -3.69031 -56.99551 32924 ft 471 kts 101°
2026-05-07 00:18 -3.70302 -56.93121 32926 ft 471 kts 101°
2026-05-07 00:18 -3.71572 -56.86688 32918 ft 471 kts 101°
2026-05-07 00:19 -3.72848 -56.80253 32930 ft 473 kts 101°
2026-05-07 00:19 -3.74112 -56.73875 32920 ft 470 kts 101°
2026-05-07 00:20 -3.75377 -56.67440 32918 ft 471 kts 101°
2026-05-07 00:20 -3.76642 -56.61015 32920 ft 470 kts 101°
2026-05-07 00:21 -3.77899 -56.54635 32916 ft 470 kts 101°
2026-05-07 00:21 -3.79164 -56.48212 32916 ft 470 kts 101°
2026-05-07 00:22 -3.80430 -56.41788 32917 ft 470 kts 101°
2026-05-07 00:22 -3.81696 -56.35365 32916 ft 470 kts 101°
2026-05-07 00:23 -3.82953 -56.28984 32916 ft 470 kts 101°
2026-05-07 00:23 -3.84218 -56.22561 32920 ft 470 kts 101°
2026-05-07 00:24 -3.85479 -56.16142 32916 ft 467 kts 101°
2026-05-07 00:24 -3.86725 -56.09799 33123 ft 462 kts 101°
2026-05-07 00:25 -3.87345 -56.06646 33360 ft 461 kts 101°
2026-05-07 00:25 -3.87964 -56.03501 33599 ft 460 kts 101°
2026-05-07 00:25 -3.88573 -56.00405 33838 ft 458 kts 101°
2026-05-07 00:25 -3.89188 -55.97278 34079 ft 456 kts 101°
2026-05-07 00:26 -3.89799 -55.94168 34323 ft 455 kts 101°
2026-05-07 00:26 -3.90407 -55.91068 34566 ft 453 kts 101°
2026-05-07 00:26 -3.91014 -55.87986 34801 ft 450 kts 101°
2026-05-07 00:26 -3.91616 -55.84912 34966 ft 451 kts 101°
2026-05-07 00:27 -3.92836 -55.78697 34960 ft 459 kts 101°
2026-05-07 00:27 -3.94063 -55.72434 34982 ft 464 kts 101°
2026-05-07 00:28 -3.95309 -55.66080 35002 ft 466 kts 101°
2026-05-07 00:28 -3.96556 -55.59710 34994 ft 467 kts 101°
2026-05-07 00:29 -3.97809 -55.53332 34920 ft 466 kts 101°
2026-05-07 00:30 -4.00292 -55.40646 34918 ft 466 kts 101°
2026-05-07 00:30 -4.01538 -55.34276 34916 ft 466 kts 101°
2026-05-07 00:31 -4.02791 -55.27907 34917 ft 466 kts 101°
2026-05-07 00:31 -4.04051 -55.21530 34917 ft 466 kts 101°
2026-05-07 00:32 -4.05300 -55.15204 34923 ft 466 kts 101°
2026-05-07 00:32 -4.06558 -55.08835 34926 ft 466 kts 101°
2026-05-07 00:33 -4.07814 -55.02464 34924 ft 466 kts 101°
2026-05-07 00:33 -4.09069 -54.96095 34925 ft 466 kts 101°
2026-05-07 00:34 -4.10317 -54.89768 34927 ft 466 kts 101°
2026-05-07 00:34 -4.11574 -54.83401 34925 ft 466 kts 101°
2026-05-07 00:35 -4.12827 -54.77022 34927 ft 467 kts 101°
2026-05-07 00:35 -4.14083 -54.70644 34926 ft 467 kts 101°
2026-05-07 00:36 -4.15329 -54.64312 34924 ft 466 kts 101°
2026-05-07 00:36 -4.16582 -54.57936 34926 ft 467 kts 101°
2026-05-07 00:37 -4.17836 -54.51560 34927 ft 467 kts 101°
2026-05-07 00:37 -4.19074 -54.45175 34926 ft 467 kts 101°
2026-05-07 00:38 -4.20292 -54.38833 34927 ft 467 kts 101°
2026-05-07 00:38 -4.21519 -54.32447 34926 ft 467 kts 101°
2026-05-07 00:39 -4.22742 -54.26063 34926 ft 467 kts 101°
2026-05-07 00:39 -4.23968 -54.19678 34935 ft 466 kts 101°
2026-05-07 00:40 -4.25188 -54.13338 34929 ft 467 kts 101°
2026-05-07 00:40 -4.26413 -54.06949 34934 ft 467 kts 101°
2026-05-07 00:41 -4.27635 -54.00567 34926 ft 466 kts 101°
2026-05-07 00:41 -4.28856 -53.94183 34941 ft 467 kts 101°
2026-05-07 00:42 -4.30083 -53.87792 34951 ft 467 kts 101°
2026-05-07 00:42 -4.31296 -53.81447 34943 ft 467 kts 101°
2026-05-07 00:43 -4.32519 -53.75058 34948 ft 467 kts 101°
2026-05-07 00:43 -4.33739 -53.68673 34940 ft 467 kts 101°
2026-05-07 00:44 -4.34961 -53.62284 34944 ft 467 kts 101°
2026-05-07 00:44 -4.36171 -53.55941 34944 ft 467 kts 101°
2026-05-07 00:45 -4.37389 -53.49553 34947 ft 467 kts 101°
2026-05-07 00:45 -4.38610 -53.43159 34945 ft 467 kts 101°
2026-05-07 00:46 -4.39827 -53.36768 34943 ft 467 kts 101°
2026-05-07 00:46 -4.41038 -53.30420 34945 ft 467 kts 101°
2026-05-07 00:47 -4.42253 -53.24028 34940 ft 467 kts 101°
2026-05-07 00:47 -4.43468 -53.17636 34947 ft 467 kts 101°
2026-05-07 00:48 -4.44684 -53.11238 34944 ft 467 kts 101°
2026-05-07 00:48 -4.45899 -53.04841 34949 ft 467 kts 101°
2026-05-07 00:49 -4.47105 -52.98489 34943 ft 467 kts 101°
2026-05-07 00:49 -4.48318 -52.92090 34951 ft 467 kts 101°
2026-05-07 00:50 -4.49531 -52.85694 34944 ft 467 kts 101°
2026-05-07 00:50 -4.50744 -52.79298 34944 ft 467 kts 101°
2026-05-07 00:51 -4.51961 -52.72903 34942 ft 467 kts 101°
2026-05-07 00:51 -4.53170 -52.66552 34950 ft 467 kts 101°
2026-05-07 00:52 -4.54389 -52.60155 34948 ft 467 kts 101°
2026-05-07 00:52 -4.55606 -52.53763 34942 ft 467 kts 101°
2026-05-07 00:53 -4.56822 -52.47367 34941 ft 467 kts 101°
2026-05-07 00:53 -4.58030 -52.41012 34946 ft 467 kts 101°
2026-05-07 00:54 -4.59246 -52.34621 34945 ft 467 kts 101°
2026-05-07 00:54 -4.60459 -52.28225 34945 ft 467 kts 101°
2026-05-07 00:55 -4.61674 -52.21826 34943 ft 467 kts 101°
2026-05-07 00:55 -4.62879 -52.15475 34963 ft 467 kts 101°
2026-05-07 00:56 -4.64090 -52.09075 34963 ft 467 kts 101°
2026-05-07 00:56 -4.65302 -52.02679 34965 ft 467 kts 101°
2026-05-07 00:57 -4.66516 -51.96281 34977 ft 467 kts 101°
2026-05-07 00:57 -4.67727 -51.89923 34969 ft 468 kts 101°
2026-05-07 00:58 -4.68952 -51.83521 34973 ft 468 kts 101°
2026-05-07 00:58 -4.70175 -51.77117 34989 ft 468 kts 101°
2026-05-07 00:59 -4.72001 -51.67548 34980 ft 468 kts 101°
2026-05-07 01:00 -4.73221 -51.61142 34982 ft 468 kts 101°
2026-05-07 01:00 -4.74445 -51.54737 34985 ft 468 kts 101°
2026-05-07 01:01 -4.75667 -51.48330 34986 ft 468 kts 101°
2026-05-07 01:01 -4.76880 -51.41964 35003 ft 468 kts 101°
2026-05-07 01:02 -4.78098 -51.35555 35043 ft 468 kts 101°
2026-05-07 01:02 -4.79320 -51.29139 35036 ft 468 kts 101°
2026-05-07 01:03 -4.80543 -51.22726 35042 ft 468 kts 101°
2026-05-07 01:03 -4.81760 -51.16314 35037 ft 468 kts 101°
2026-05-07 01:04 -4.82971 -51.09942 35049 ft 468 kts 101°
2026-05-07 01:04 -4.84179 -51.03518 35047 ft 469 kts 101°
2026-05-07 01:05 -4.85385 -50.97094 35045 ft 469 kts 101°
2026-05-07 01:05 -4.86385 -50.91758 35047 ft 469 kts 101°
2026-05-07 01:06 -4.87787 -50.84294 35049 ft 469 kts 101°
2026-05-07 01:06 -4.88992 -50.77869 35044 ft 469 kts 101°
2026-05-07 01:07 -4.90195 -50.71445 35048 ft 469 kts 101°
2026-05-07 01:07 -4.91399 -50.65027 35047 ft 469 kts 101°
2026-05-07 01:08 -4.92398 -50.59688 35047 ft 469 kts 101°
2026-05-07 01:08 -4.93793 -50.52223 35049 ft 469 kts 101°
2026-05-07 01:09 -4.94997 -50.45794 35047 ft 469 kts 101°
2026-05-07 01:09 -4.96198 -50.39369 35046 ft 469 kts 101°
2026-05-07 01:10 -4.97409 -50.32938 35046 ft 469 kts 101°
2026-05-07 01:10 -4.98618 -50.26554 35044 ft 469 kts 101°
2026-05-07 01:11 -4.99833 -50.20128 35052 ft 469 kts 101°
2026-05-07 01:11 -5.01048 -50.13697 35004 ft 469 kts 101°
2026-05-07 01:12 -5.02262 -50.07268 35009 ft 469 kts 101°
2026-05-07 01:12 -5.03467 -50.00880 34997 ft 469 kts 101°
2026-05-07 01:13 -5.04679 -49.94451 35028 ft 469 kts 101°
2026-05-07 01:13 -5.05892 -49.88010 35028 ft 470 kts 101°
2026-05-07 01:14 -5.07104 -49.81555 35025 ft 469 kts 101°
2026-05-07 01:14 -5.08309 -49.75164 35016 ft 470 kts 101°
2026-05-07 01:15 -5.09524 -49.68722 35019 ft 470 kts 101°
2026-05-07 01:15 -5.10736 -49.62272 35003 ft 470 kts 101°
2026-05-07 01:16 -5.11949 -49.55824 35009 ft 470 kts 101°
2026-05-07 01:16 -5.13154 -49.49420 35009 ft 470 kts 101°
2026-05-07 01:17 -5.14364 -49.42976 34995 ft 471 kts 101°
2026-05-07 01:17 -5.15575 -49.36525 34999 ft 470 kts 101°
2026-05-07 01:18 -5.16784 -49.30075 34998 ft 471 kts 101°
2026-05-07 01:18 -5.17993 -49.23619 35005 ft 471 kts 101°
2026-05-07 01:19 -5.19195 -49.17206 35007 ft 471 kts 101°
2026-05-07 01:19 -5.20402 -49.10752 34991 ft 471 kts 101°
2026-05-07 01:20 -5.21408 -49.05385 34987 ft 471 kts 101°
2026-05-07 01:20 -5.22618 -48.98922 34983 ft 471 kts 101°
2026-05-07 01:21 -5.24020 -48.91413 34984 ft 472 kts 101°
2026-05-07 01:21 -5.25227 -48.84952 34993 ft 471 kts 101°
2026-05-07 01:22 -5.26229 -48.79576 34984 ft 472 kts 101°
2026-05-07 01:22 -5.27639 -48.72009 34985 ft 472 kts 101°
2026-05-07 01:23 -5.28836 -48.65582 34984 ft 472 kts 101°
2026-05-07 01:23 -5.29810 -48.60193 34983 ft 472 kts 101°
2026-05-07 01:24 -5.30985 -48.53712 34981 ft 472 kts 101°
2026-05-07 01:24 -5.32160 -48.47227 34982 ft 472 kts 101°
2026-05-07 01:25 -5.33337 -48.40736 34977 ft 473 kts 101°
2026-05-07 01:25 -5.34532 -48.34291 34972 ft 473 kts 101°
2026-05-07 01:26 -5.35732 -48.27802 34968 ft 473 kts 101°
2026-05-07 01:26 -5.36933 -48.21309 34962 ft 474 kts 101°
2026-05-07 01:27 -5.38134 -48.14809 34956 ft 473 kts 101°
2026-05-07 01:27 -5.39326 -48.08353 34938 ft 474 kts 101°
2026-05-07 01:28 -5.40525 -48.01856 34949 ft 474 kts 101°
2026-05-07 01:28 -5.41727 -47.95354 34928 ft 475 kts 101°
2026-05-07 01:29 -5.42930 -47.88839 34922 ft 475 kts 101°
2026-05-07 01:29 -5.44124 -47.82373 34928 ft 474 kts 101°
2026-05-07 01:30 -5.45325 -47.75859 34920 ft 475 kts 101°
2026-05-07 01:30 -5.46526 -47.69347 34917 ft 474 kts 101°
2026-05-07 01:31 -5.47726 -47.62837 34917 ft 474 kts 101°
2026-05-07 01:31 -5.48924 -47.56324 34916 ft 474 kts 101°
2026-05-07 01:32 -5.50115 -47.49858 34917 ft 474 kts 101°
2026-05-07 01:32 -5.51310 -47.43343 34920 ft 474 kts 101°
2026-05-07 01:33 -5.52498 -47.36833 34916 ft 474 kts 101°
2026-05-07 01:33 -5.53688 -47.30321 34919 ft 474 kts 101°
2026-05-07 01:34 -5.54864 -47.23853 34917 ft 474 kts 101°
2026-05-07 01:34 -5.56050 -47.17341 34916 ft 474 kts 101°
2026-05-07 01:35 -5.57238 -47.10828 34915 ft 474 kts 101°
2026-05-07 01:35 -5.58424 -47.04315 34917 ft 474 kts 101°
2026-05-07 01:36 -5.59600 -46.97847 34918 ft 474 kts 101°
2026-05-07 01:36 -5.60784 -46.91333 34918 ft 474 kts 101°
2026-05-07 01:37 -5.61968 -46.84818 34917 ft 474 kts 101°
2026-05-07 01:37 -5.63143 -46.78346 34919 ft 474 kts 101°
2026-05-07 01:38 -5.64325 -46.71834 34922 ft 475 kts 101°
2026-05-07 01:38 -5.65507 -46.65316 34929 ft 474 kts 101°
2026-05-07 01:39 -5.66689 -46.58799 34925 ft 475 kts 101°
2026-05-07 01:39 -5.67869 -46.52276 34927 ft 475 kts 101°
2026-05-07 01:40 -5.69042 -46.45799 34926 ft 475 kts 101°
2026-05-07 01:40 -5.70221 -46.39271 34928 ft 475 kts 101°
2026-05-07 01:41 -5.71401 -46.32747 34941 ft 475 kts 101°
2026-05-07 01:41 -5.72578 -46.26222 34933 ft 475 kts 101°
2026-05-07 01:42 -5.73747 -46.19734 34944 ft 475 kts 101°
2026-05-07 01:42 -5.74924 -46.13198 34937 ft 476 kts 101°
2026-05-07 01:43 -5.76101 -46.06663 34935 ft 475 kts 101°
2026-05-07 01:43 -5.77277 -46.00128 34954 ft 476 kts 101°
2026-05-07 01:44 -5.78446 -45.93635 34942 ft 476 kts 101°
2026-05-07 01:44 -5.79621 -45.87098 34943 ft 476 kts 101°
2026-05-07 01:45 -5.80796 -45.80562 34943 ft 475 kts 101°
2026-05-07 01:45 -5.81968 -45.74026 34950 ft 475 kts 101°
2026-05-07 01:46 -5.83140 -45.67488 34942 ft 476 kts 101°
2026-05-07 01:46 -5.84303 -45.60997 34959 ft 476 kts 101°
2026-05-07 01:47 -5.85472 -45.54464 34953 ft 475 kts 101°
2026-05-07 01:47 -5.86642 -45.47926 34955 ft 475 kts 101°
2026-05-07 01:48 -5.87812 -45.41388 34954 ft 475 kts 101°
2026-05-07 01:48 -5.88979 -45.34854 34955 ft 475 kts 101°
2026-05-07 01:49 -5.90140 -45.28362 34953 ft 475 kts 101°
2026-05-07 01:49 -5.91306 -45.21826 34957 ft 475 kts 101°
2026-05-07 01:50 -5.92472 -45.15287 34965 ft 475 kts 101°
2026-05-07 01:50 -5.93647 -45.08754 34963 ft 475 kts 101°
2026-05-07 01:51 -5.94808 -45.02268 34963 ft 475 kts 101°
2026-05-07 01:51 -5.95978 -44.95739 34963 ft 475 kts 101°
2026-05-07 01:52 -5.97149 -44.89202 34963 ft 476 kts 101°
2026-05-07 01:52 -5.98320 -44.82660 34963 ft 475 kts 101°
2026-05-07 01:53 -5.99482 -44.76166 34964 ft 476 kts 101°
2026-05-07 01:53 -6.00649 -44.69628 34963 ft 476 kts 101°
2026-05-07 01:54 -6.01818 -44.63079 34964 ft 477 kts 101°
2026-05-07 01:54 -6.02987 -44.56528 34969 ft 476 kts 101°
2026-05-07 01:55 -6.04155 -44.49974 34973 ft 477 kts 101°
2026-05-07 01:55 -6.05314 -44.43464 34972 ft 477 kts 101°
2026-05-07 01:56 -6.06479 -44.36915 34973 ft 476 kts 101°
2026-05-07 01:56 -6.07637 -44.30367 34972 ft 476 kts 101°
2026-05-07 01:57 -6.08796 -44.23816 34972 ft 476 kts 101°
2026-05-07 01:57 -6.09952 -44.17264 34974 ft 476 kts 100°
2026-05-07 01:58 -6.11091 -44.10756 34974 ft 476 kts 100°
2026-05-07 01:58 -6.12241 -44.04203 34972 ft 476 kts 101°
2026-05-07 01:59 -6.13389 -43.97654 34973 ft 476 kts 100°
2026-05-07 01:59 -6.14535 -43.91098 34981 ft 476 kts 100°
2026-05-07 02:00 -6.15674 -43.84588 34972 ft 476 kts 100°
2026-05-07 02:00 -6.16818 -43.78034 34973 ft 476 kts 100°
2026-05-07 02:01 -6.17962 -43.71478 34974 ft 477 kts 100°
2026-05-07 02:01 -6.19108 -43.64916 34972 ft 477 kts 100°
2026-05-07 02:02 -6.20246 -43.58400 34974 ft 477 kts 100°
2026-05-07 02:02 -6.21388 -43.51844 34973 ft 476 kts 101°
2026-05-07 02:03 -6.22531 -43.45279 34974 ft 477 kts 100°
2026-05-07 02:03 -6.23673 -43.38711 34972 ft 477 kts 100°
2026-05-07 02:04 -6.24833 -43.32147 34973 ft 477 kts 101°
2026-05-07 02:04 -6.25993 -43.25625 34972 ft 477 kts 101°
2026-05-07 02:05 -6.27158 -43.19060 34985 ft 477 kts 101°
2026-05-07 02:05 -6.28322 -43.12488 34983 ft 478 kts 101°
2026-05-07 02:06 -6.29487 -43.05915 34982 ft 478 kts 101°
2026-05-07 02:06 -6.30643 -42.99385 34983 ft 477 kts 101°
2026-05-07 02:07 -6.31806 -42.92812 34983 ft 478 kts 101°
2026-05-07 02:07 -6.33549 -42.82944 34980 ft 478 kts 101°
2026-05-07 02:08 -6.34711 -42.76364 34969 ft 478 kts 101°
2026-05-07 02:08 -6.35862 -42.69828 34985 ft 478 kts 101°
2026-05-07 02:09 -6.37011 -42.63251 34983 ft 478 kts 100°
2026-05-07 02:09 -6.38144 -42.56669 34983 ft 478 kts 100°
2026-05-07 02:10 -6.39275 -42.50085 34987 ft 478 kts 101°
2026-05-07 02:10 -6.40398 -42.43541 34981 ft 478 kts 100°
2026-05-07 02:11 -6.41531 -42.36956 34980 ft 478 kts 101°
2026-05-07 02:11 -6.42665 -42.30369 34982 ft 478 kts 100°
2026-05-07 02:12 -6.43795 -42.23785 34980 ft 478 kts 100°
2026-05-07 02:12 -6.44916 -42.17245 34983 ft 478 kts 101°
2026-05-07 02:13 -6.46046 -42.10658 34982 ft 478 kts 100°
2026-05-07 02:13 -6.47172 -42.04070 34992 ft 478 kts 100°
2026-05-07 02:14 -6.48300 -41.97479 34985 ft 478 kts 100°
2026-05-07 02:14 -6.49421 -41.90926 34985 ft 479 kts 100°
2026-05-07 02:15 -6.50548 -41.84332 34994 ft 479 kts 100°
2026-05-07 02:15 -6.51675 -41.77736 34993 ft 479 kts 100°
2026-05-07 02:16 -6.52799 -41.71143 35006 ft 478 kts 101°
2026-05-07 02:16 -6.53924 -41.64542 34999 ft 479 kts 101°
2026-05-07 02:17 -6.55040 -41.57982 35005 ft 479 kts 100°
2026-05-07 02:17 -6.56164 -41.51376 34998 ft 479 kts 100°
2026-05-07 02:18 -6.57289 -41.44769 35010 ft 480 kts 100°
2026-05-07 02:18 -6.58411 -41.38157 35012 ft 480 kts 100°
2026-05-07 02:19 -6.59526 -41.31589 35016 ft 480 kts 100°